Back to catalog

CZ-6A DEB

AliveSSO
NORAD 56620·DEBRIS·🇨🇳 China

Launched Nov 11, 2022 from Taiyuan Satellite Launch Center

Loading…

Next Passes (next 24 hours)

TLE

FreshSource: Space-Track

Epoch: Sep 14, 2026, 08:23 UTC

1 56620U 22151AEU 26257.34956747  .00000584  00000-0  47799-3 0  9993
2 56620  98.9428 210.0564 0154397 231.5027 127.2200 13.88105003176577

Track CZ-6A DEB in real time with AllMySat

Download on the App Store